User: anonymous   Login
Location: Peebles
(55.6412°N, 3.1714°W)
Time: 08:28:03
(UTC+01:00)
Language:

FENGYUN 1C DEB - Orbit

View from above orbital plane
View from above orbital plane
View from above satellite
View from above satellite

Ground track
Ground track

The orbit data is extracted from the following two-line orbital elements,

1 38720U 99025ETM 22175.64384243  .00005341  00000-0  21254-2 0  9995
2 38720  99.1312 320.6485 0055206 190.6802 169.3210 14.28249374467585
Epoch (UTC): 24 June 2022 15:27:07
Eccentricity: 0.0055206
inclination: 99.1312°
perigee height: 758 km
apogee height: 837 km
right ascension of ascending node: 320.6485°
argument of perigee: 190.6802°
revolutions per day: 14.28249374
mean anomaly at epoch: 169.3210°
orbit number at epoch: 46758

The dashed part of the orbit path shows where the satellite is in the earth's shadow,  

DLR